Location: Unspecified
(35.6961°N, 0.0000°E)
Time: 00:27:00
(UTC+00:00)

Courier 1B Rocket - Pass Details

Date: 19 May 2019
Orbit: 920 x 1202 km, 28.2° (Epoch: 19 June)

Event Time Altitude Azimuth Distance (km) Brightness Sun altitude
Rises 19:25:07 0° 255° (WSW) 4,079 9.0 -5.2°
Reaches altitude 10° 19:28:06 10° 250° (WSW) 3,097 8.3 -5.7°
Maximum altitude 19:35:26 48° 178° (S) 1,449 5.7 -7.0°
Drops below altitude 10° 19:42:21 10° 107° (ESE) 2,933 6.9 -8.2°
Enters shadow 19:42:46 - 106° (ESE) 3,068 7.0 -8.3°
